Weather Roundup
Issued by NWS

Home | Current Version | Previous Version | Text Only | Print | Product List | Glossary On
Versions: 1 2 3 4 5 6 7 8 9 10 11 12 13 14 15 16 17 18 19 20 21 22 23 24 25 26 27 28 29 30 31 32 33 34 35 36 37 38 39 40 41 42 43 44 45 46 47 48 49 50
000
NZUS93 KARX 211110
HRRWXR

CURRENT HOURLY OBSERVATIONS ACROSS
MUCH OF THE UPPER MISSISSIPPI VALLEY
NATIONAL WEATHER SERVICE LA CROSSE WI
600 AM CDT THU AUG 21 2014


...SOUTHEAST MINNESOTA...


CITY           SKY/WX    TMP DP  RH WIND       PRES   REMARKS
ROCHESTER      TSTM      69  67  93 SE10      29.84R
ROCHESTER/MAYO CLOUDY    70  68  93 E9        29.84R
WINONA         CLOUDY    72  68  88 SE5       29.85R
AUSTIN         CLOUDY    72  70  94 SE7       29.82S
ALBERT LEA     TSTM      72  70  94 S8G16     29.80S
DODGE CENTER   TSTM      70  70 100 SE8       29.82R
PRESTON        TSTM      69  69 100 SE8       29.88R
OWATONNA       TSTM      72  70  94 SW16G23   29.90R
FARIBAULT      TSTM      73  68  83 SW12G18   29.86R
$$

...ELSEWHERE IN MINNESOTA...


CITY           SKY/WX    TMP DP  RH WIND       PRES   REMARKS
MINNEAPOLIS    TSTM      70  68  93 SE13      29.77F
INTNL FALLS    MOCLDY    57  57 100 SE12      29.91R
DULUTH         FOG       60  58  92 E10       29.90S VSB 1/2
RED WING       LGT RAIN  72  66  83 SE8       29.81R
REDWOOD FALLS  LGT RAIN  70  68  93 N6        29.78R
MANKATO        CLOUDY    70  66  88 SE14      29.79F
WORTHINGTON    MOCLDY    73  14  10 CALM      29.76R
FAIRMONT       CLOUDY    70  64  83 MISG      29.78F THUNDER
$$

...SOUTHWEST WISCONSIN...


CITY           SKY/WX    TMP DP  RH WIND       PRES   REMARKS
LA CROSSE      CLOUDY    72  66  81 SE7       29.85R
PRAIRIE DU CHI CLOUDY    71  66  84 SE3       29.87R
BOSCOBEL       CLOUDY    70  66  87 CALM      29.87S
LONE ROCK      CLOUDY    72  67  84 E5        29.87F
PLATTEVILLE    CLOUDY    70  67  91 E7        29.92R
FORT MC COY    CLOUDY    68  66  92 E3        29.89R
CAMP DOUGLAS   CLOUDY    64  64 100 E6        29.90R FOG
VIROQUA        PTSUNNY   66  66 100 SE6       29.90R
WIS DELLS      CLOUDY    65  63  93 E3        29.90R FOG
$$

...ELSEWHERE IN WISCONSIN...


CITY           SKY/WX    TMP DP  RH WIND       PRES   REMARKS
MILWAUKEE      MOCLDY    66  63  90 CALM      29.94S
MADISON        CLOUDY    70  66  87 SE6       29.91F
GREEN BAY      CLOUDY    60  59  96 CALM      29.94S FOG
EAU CLAIRE     RAIN      66  64  93 E7        29.84F
BLACK RVR FLS  PTSUNNY   67  67  99 E5        29.87S
MEDFORD        CLOUDY    61  61  97 SE6       29.93R
WAUSAU         PTCLDY    60  59  96 E5        29.93S
WIS RAPIDS     MOCLDY    64  62  93 SE3       29.93R
MARSHFIELD     MOCLDY    63  62  97 E5        29.92R FOG
RICE LAKE      CLOUDY    64  60  90 E5        29.88F
$$

...NORTHEAST IOWA...


CITY           SKY/WX    TMP DP  RH WIND       PRES   REMARKS
WATERLOO       CLOUDY    71  70  96 E7        29.82F FOG
DUBUQUE        CLOUDY    71  69  93 E9        29.91R
DECORAH        CLOUDY    70  68  94 S9        29.87R
MASON CITY     CLOUDY    71  70  96 SE8       29.81F
CHARLES CITY   CLOUDY    72  70  94 SE7       29.84S
OELWEIN        CLOUDY    72  72 100 S7        29.88R FOG
$$

...ELSEWHERE IN IOWA...


CITY           SKY/WX    TMP DP  RH WIND       PRES   REMARKS
DES MOINES     CLOUDY    77  69  76 S13       29.80S
IOWA CITY      PTCLDY    72  72 100 CALM      29.86R
FORT DODGE     CLOUDY    73  70  88 S12       29.77R
MARSHALLTOWN   MOCLDY    74  71  91 S6        29.81R
CEDAR RAPIDS   MOCLDY    73  72  96 S6        29.85S
$$

...NORTHERN ILLINOIS...


CITY           SKY/WX    TMP DP  RH WIND       PRES   REMARKS
CHICAGO-OHARE  TSTM      71  66  84 VRB3      29.92F
DUPAGE         LGT RAIN  70  68  93 S5        29.94S
CHICAGO-MIDWAY TSTM      72  69  90 CALM      29.93F
MOLINE         PTCLDY    73  69  87 VRB3      29.87S
ROCKFORD       TSTM      69  67  93 SE13      29.94S FOG
STERLING       CLOUDY    72  68  88 CALM      29.90F
PEORIA         CLEAR     73  69  87 SW7       29.92S
$$

NOTE: "FAIR" INDICATES FEW OR NO CLOUDS BELOW 12,000 FEET WITH NO
SIGNIFICANT WEATHER AND/OR OBSTRUCTIONS TO VISIBILITY. WIND
SPEEDS ARE IN MILES-PER-HOUR.



USA.gov is the U.S. government's official web portal to all federal, state and local government web resources and services.